| time (UTC) | temp C | wind direction | speed KPH | gust KPH | rain 1hr cm | rain 24hr cm | rain mn cm | humidity % | barometer mb |
| 20260508020508 | 12 | 183 | 4.8 | 12.9 | 0.00 | 3.23 | 0.00 | 89 | 1012.0 |
| 20260508015508 | 12 | 155 | 4.8 | 14.5 | 0.00 | 3.23 | 0.00 | 86 | 1012.3 |
| 20260508014508 | 12 | 107 | 4.8 | 12.9 | 0.00 | 3.25 | 0.00 | 86 | 1012.2 |
| 20260508013508 | 12 | 110 | 4.8 | 12.9 | 0.00 | 3.28 | 0.00 | 85 | 1012.2 |
| 20260508012508 | 12 | 104 | 4.8 | 14.5 | 0.00 | 3.30 | 0.00 | 83 | 1012.4 |
| 20260508011508 | 13 | 37 | 4.8 | 12.9 | 0.00 | 3.33 | 0.00 | 81 | 1012.4 |
| 20260508010508 | 13 | 166 | 4.8 | 12.9 | 0.00 | 3.33 | 0.00 | 79 | 1012.4 |
| 20260508005508 | 13 | 176 | 4.8 | 14.5 | 0.00 | 3.35 | 0.00 | 78 | 1012.5 |
| 20260508004508 | 13 | 167 | 4.8 | 12.9 | 0.00 | 3.38 | 0.00 | 77 | 1012.5 |
| 20260508003508 | 13 | 122 | 6.4 | 12.9 | 0.00 | 3.40 | 0.00 | 78 | 1012.3 |
| 20260508002508 | 13 | 171 | 6.4 | 14.5 | 0.00 | 3.40 | 0.00 | 78 | 1012.4 |
| 20260508001508 | 13 | 157 | 6.4 | 12.9 | 0.00 | 3.43 | 0.00 | 79 | 1012.4 |
| 20260508000508 | 12 | 112 | 6.4 | 12.9 | 0.00 | 3.45 | 0.00 | 79 | 1012.4 |
| 20260507235508 | 12 | 116 | 4.8 | 12.9 | 0.00 | 3.45 | 3.45 | 77 | 1012.6 |
| 20260507234508 | 13 | 148 | 4.8 | 12.9 | 0.00 | 3.45 | 3.45 | 74 | 1012.7 |
| 20260507233508 | 13 | 3 | 4.8 | 12.9 | 0.00 | 3.48 | 3.45 | 71 | 1012.8 |
| 20260507232508 | 13 | 12 | 6.4 | 12.9 | 0.00 | 3.48 | 3.45 | 68 | 1013.0 |
| 20260507231508 | 13 | 155 | 4.8 | 12.9 | 0.20 | 3.48 | 3.45 | 67 | 1013.0 |
| 20260507230508 | 13 | 112 | 6.4 | 12.9 | 7.34 | 3.48 | 3.45 | 66 | 1013.0 |
| 20260507225508 | 12 | 164 | 4.8 | 12.9 | 3.38 | 3.48 | 3.45 | 67 | 1013.0 |
| 20260507224508 | 13 | 105 | 6.4 | 12.9 | 6.05 | 3.48 | 3.45 | 65 | 1013.0 |
| 20260507223508 | 13 | 114 | 6.4 | 12.9 | 8.71 | 3.51 | 3.45 | 62 | 1013.2 |
| 20260507222508 | 13 | 150 | 6.4 | 12.9 | 11.38 | 3.51 | 3.45 | 61 | 1013.3 |
| 20260507221508 | 13 | 112 | 4.8 | 11.3 | 14.02 | 3.51 | 3.45 | 60 | 1013.5 |
| 20260507220508 | 13 | 96 | 4.8 | 11.3 | 15.98 | 3.48 | 3.45 | 59 | 1013.5 |
| 20260507215508 | 13 | 159 | 4.8 | 11.3 | 15.98 | 3.45 | 3.43 | 59 | 1013.6 |
| 20260507214508 | 13 | 169 | 4.8 | 9.7 | 15.98 | 3.43 | 3.40 | 59 | 1013.6 |
| 20260507213508 | 13 | 112 | 4.8 | 9.7 | 15.98 | 3.40 | 3.35 | 60 | 1013.5 |
| 20260507212508 | 13 | 113 | 4.8 | 9.7 | 15.98 | 3.38 | 3.33 | 61 | 1013.6 |
| 20260507211508 | 13 | 120 | 3.2 | 9.7 | 15.98 | 3.35 | 3.30 | 61 | 1013.6 |
| 20260507210508 | 13 | 103 | 3.2 | 9.7 | 15.98 | 3.33 | 3.28 | 61 | 1013.6 |
| 20260507205508 | 13 | 105 | 3.2 | 9.7 | 15.98 | 3.30 | 3.25 | 62 | 1013.8 |
| 20260507204508 | 14 | 149 | 3.2 | 9.7 | 15.98 | 3.28 | 3.23 | 62 | 1013.8 |
| 20260507203508 | 13 | 159 | 4.8 | 11.3 | 15.98 | 3.25 | 3.20 | 64 | 1013.8 |
| 20260507202508 | 14 | 97 | 4.8 | 11.3 | 15.98 | 3.23 | 3.17 | 65 | 1014.0 |
| 20260507201508 | 13 | 151 | 4.8 | 11.3 | 15.98 | 3.20 | 3.15 | 67 | 1013.9 |
| 20260507200508 | 13 | 101 | 4.8 | 11.3 | 15.98 | 3.17 | 3.12 | 69 | 1013.9 |
| 20260507195508 | 14 | 170 | 4.8 | 11.3 | 15.98 | 3.15 | 3.10 | 69 | 1014.1 |
| 20260507194508 | 14 | 31 | 4.8 | 9.7 | 15.98 | 3.12 | 3.07 | 70 | 1014.1 |
| 20260507193508 | 14 | 164 | 4.8 | 9.7 | 15.98 | 3.10 | 3.05 | 72 | 1014.2 |
| 20260507192508 | 13 | 155 | 3.2 | 9.7 | 15.98 | 3.05 | 3.02 | 74 | 1014.1 |
| 20260507191508 | 14 | 140 | 4.8 | 9.7 | 15.98 | 3.02 | 3.00 | 76 | 1014.1 |
| 20260507190508 | 14 | 184 | 4.8 | 9.7 | 15.98 | 3.00 | 2.97 | 76 | 1014.0 |
| 20260507185508 | 14 | 179 | 4.8 | 11.3 | 15.98 | 2.97 | 2.95 | 76 | 1014.0 |
| 20260507184508 | 14 | 112 | 3.2 | 11.3 | 15.98 | 2.95 | 2.92 | 76 | 1013.9 |
| 20260507183508 | 15 | 188 | 4.8 | 11.3 | 15.98 | 2.92 | 2.90 | 75 | 1013.9 |
| 20260507182509 | 15 | 131 | 4.8 | 12.9 | 15.98 | 2.90 | 2.87 | 76 | 1013.9 |
| 20260507181508 | 15 | 117 | 4.8 | 12.9 | 15.98 | 2.87 | 2.82 | 77 | 1013.8 |
| 20260507180508 | 15 | 171 | 3.2 | 12.9 | 15.98 | 2.84 | 2.79 | 76 | 1013.9 |
| 20260507175508 | 15 | 168 | 4.8 | 14.5 | 15.98 | 2.82 | 2.77 | 74 | 1014.0 |
| 20260507174508 | 15 | 123 | 4.8 | 14.5 | 15.98 | 2.79 | 2.74 | 73 | 1014.1 |
| 20260507173508 | 16 | 150 | 4.8 | 16.1 | 15.98 | 2.77 | 2.72 | 72 | 1014.1 |
| 20260507172508 | 16 | 111 | 4.8 | 17.7 | 15.98 | 2.74 | 2.69 | 71 | 1014.2 |
| 20260507171508 | 16 | 128 | 6.4 | 17.7 | 15.98 | 2.72 | 2.67 | 69 | 1014.3 |
| 20260507170508 | 16 | 174 | 6.4 | 17.7 | 15.98 | 2.69 | 2.64 | 67 | 1014.3 |
| 20260507165508 | 16 | 112 | 8.0 | 17.7 | 15.98 | 2.67 | 2.62 | 66 | 1014.5 |
| 20260507164508 | 17 | 118 | 8.0 | 17.7 | 15.98 | 2.64 | 2.59 | 65 | 1014.7 |
| 20260507163508 | 17 | 118 | 8.0 | 17.7 | 15.98 | 2.62 | 2.57 | 65 | 1014.7 |
| 20260507162509 | 17 | 91 | 8.0 | 19.3 | 15.98 | 2.59 | 2.54 | 66 | 1014.8 |
| 20260507161508 | 18 | 180 | 8.0 | 17.7 | 15.98 | 2.57 | 25.22 | 66 | 1014.9 |
| 20260507160508 | 18 | 124 | 8.0 | 17.7 | 15.98 | 25.37 | 24.97 | 66 | 1015.0 |
| 20260507155508 | 18 | 104 | 9.7 | 19.3 | 15.98 | 25.12 | 24.69 | 65 | 1015.2 |
| 20260507154508 | 18 | 105 | 8.0 | 17.7 | 15.98 | 24.84 | 24.43 | 63 | 1015.3 |
| 20260507153508 | 18 | 113 | 9.7 | 17.7 | 15.98 | 24.59 | 24.16 | 62 | 1015.4 |
| 20260507152511 | 19 | 101 | 8.0 | 17.7 | 15.98 | 24.31 | 23.90 | 62 | 1015.5 |
| 20260507151508 | 19 | 107 | 8.0 | 17.7 | 15.98 | 24.05 | 23.62 | 61 | 1015.6 |
| 20260507150508 | 20 | 103 | 9.7 | 17.7 | 15.98 | 23.77 | 23.37 | 59 | 1015.7 |
| 20260507145508 | 20 | 162 | 9.7 | 17.7 | 15.98 | 23.52 | 23.09 | 60 | 1015.7 |
| 20260507144508 | 20 | 103 | 9.7 | 17.7 | 15.98 | 23.24 | 22.83 | 61 | 1015.7 |
| 20260507143508 | 20 | 163 | 9.7 | 17.7 | 15.98 | 22.99 | 22.56 | 62 | 1015.7 |
| 20260507142508 | 20 | 113 | 9.7 | 16.1 | 15.98 | 22.71 | 22.30 | 62 | 1015.8 |
| 20260507141508 | 20 | 145 | 9.7 | 16.1 | 15.98 | 22.45 | 22.02 | 64 | 1015.8 |
| 20260507140508 | 20 | 119 | 9.7 | 16.1 | 15.98 | 22.17 | 21.77 | 64 | 1015.8 |
| 20260507135508 | 20 | 117 | 9.7 | 16.1 | 15.98 | 21.92 | 21.51 | 66 | 1015.9 |
| 20260507134508 | 20 | 109 | 9.7 | 16.1 | 15.98 | 21.64 | 21.23 | 67 | 1015.9 |
| 20260507133508 | 20 | 112 | 9.7 | 14.5 | 16.51 | 21.39 | 20.98 | 67 | 1016.0 |
| 20260507132508 | 20 | 105 | 8.0 | 16.1 | 16.51 | 21.11 | 20.70 | 68 | 1016.1 |
| 20260507131508 | 20 | 118 | 8.0 | 14.5 | 16.51 | 20.85 | 20.45 | 68 | 1016.3 |
| 20260507130508 | 20 | 111 | 8.0 | 14.5 | 16.51 | 20.57 | 20.17 | 66 | 1016.4 |
| 20260507125508 | 20 | 172 | 8.0 | 14.5 | 16.51 | 20.32 | 19.91 | 65 | 1016.5 |
| 20260507124508 | 20 | 119 | 8.0 | 12.9 | 16.51 | 20.04 | 19.63 | 66 | 1016.6 |
| 20260507123508 | 20 | 116 | 6.4 | 12.9 | 15.98 | 19.74 | 19.30 | 65 | 1016.7 |
| 20260507122508 | 20 | 158 | 6.4 | 12.9 | 15.98 | 19.46 | 19.05 | 64 | 1016.7 |
| 20260507121508 | 20 | 141 | 6.4 | 11.3 | 15.98 | 19.20 | 18.77 | 64 | 1016.8 |
| 20260507120508 | 20 | 159 | 4.8 | 11.3 | 15.98 | 18.92 | 18.52 | 63 | 1016.8 |
| 20260507115508 | 20 | 146 | 6.4 | 11.3 | 15.98 | 18.67 | 18.24 | 62 | 1016.9 |
| 20260507114508 | 20 | 156 | 4.8 | 11.3 | 15.98 | 18.39 | 17.98 | 64 | 1017.0 |
| 20260507113508 | 20 | 147 | 4.8 | 11.3 | 15.98 | 18.14 | 17.73 | 65 | 1016.9 |
| 20260507112508 | 19 | 159 | 4.8 | 11.3 | 15.98 | 17.86 | 17.45 | 67 | 1017.0 |
| 20260507111509 | 19 | 28 | 3.2 | 9.7 | 15.98 | 17.60 | 17.20 | 68 | 1017.1 |
| 20260507110508 | 19 | 171 | 3.2 | 11.3 | 15.98 | 17.32 | 16.92 | 67 | 1017.1 |
| 20260507105508 | 20 | 123 | 3.2 | 11.3 | 15.98 | 17.07 | 16.66 | 66 | 1017.2 |
| 20260507104508 | 19 | 171 | 3.2 | 11.3 | 15.98 | 16.79 | 16.38 | 67 | 1017.2 |
| 20260507103508 | 19 | 143 | 3.2 | 11.3 | 16.51 | 16.54 | 16.13 | 68 | 1017.2 |
| 20260507102508 | 19 | 214 | 3.2 | 12.9 | 16.51 | 16.26 | 15.85 | 68 | 1017.2 |
| 20260507101508 | 18 | 145 | 3.2 | 11.3 | 16.51 | 16.00 | 15.60 | 73 | 1017.0 |
| 20260507100508 | 18 | 189 | 3.2 | 9.7 | 16.51 | 15.72 | 15.32 | 70 | 1017.1 |
| 20260507095508 | 19 | 121 | 3.2 | 11.3 | 17.04 | 15.47 | 15.06 | 68 | 1017.3 |
| 20260507094509 | 19 | 162 | 3.2 | 9.7 | 17.04 | 15.19 | 14.78 | 69 | 1017.2 |
| 20260507093408 | 18 | 86 | 4.8 | 9.7 | 17.04 | 14.88 | 14.48 | 69 | 1017.0 |
| 20260507092408 | 18 | 26 | 4.8 | 11.3 | 17.04 | 14.61 | 14.20 | 72 | 1016.9 |
| 20260507091408 | 18 | 176 | 4.8 | 11.3 | 17.04 | 14.35 | 13.94 | 73 | 1016.8 |
| 20260507090408 | 17 | 171 | 4.8 | 9.7 | 17.04 | 14.07 | 13.67 | 74 | 1016.5 |
| 20260507085208 | 17 | 119 | 3.2 | 9.7 | 16.51 | 13.72 | 13.28 | 76 | 1016.3 |
| 20260507084208 | 17 | 128 | 3.2 | 11.3 | 15.98 | 13.39 | 12.98 | 77 | 1016.2 |
| 20260507083208 | 16 | 155 | 3.2 | 11.3 | 16.51 | 13.13 | 12.70 | 79 | 1015.9 |
| 20260507082208 | 16 | 134 | 3.2 | 11.3 | 18.11 | 12.85 | 12.45 | 82 | 1015.8 |
| 20260507081208 | 16 | 138 | 3.2 | 11.3 | 18.11 | 12.60 | 12.17 | 83 | 1015.7 |
| 20260507080208 | 16 | 124 | 4.8 | 12.9 | 19.18 | 12.32 | 11.91 | 82 | 1015.6 |
| 20260507075208 | 16 | 173 | 3.2 | 12.9 | 19.71 | 12.06 | 11.63 | 83 | 1015.5 |
| 20260507074208 | 15 | 135 | 4.8 | 12.9 | 20.24 | 11.79 | 11.38 | 84 | 1015.5 |
| 20260507073208 | 15 | 180 | 4.8 | 12.9 | 19.71 | 11.40 | 11.00 | 85 | 1015.4 |
| 20260507072108 | 14 | 149 | 4.8 | 11.3 | 17.58 | 10.87 | 10.46 | 90 | 1015.3 |
| 20260507070808 | 13 | 173 | 4.8 | 9.7 | 17.04 | 10.57 | 10.16 | 94 | 1015.2 |
| 20260507065808 | 13 | 224 | 3.2 | 9.7 | 18.11 | 10.29 | 9.88 | 92 | 1015.6 |
| 20260507064808 | 13 | 136 | 3.2 | 8.0 | 18.11 | 9.98 | 9.55 | 92 | 1016.1 |
| 20260507063808 | 13 | 178 | 3.2 | 6.4 | 17.58 | 9.65 | 9.25 | 94 | 1016.2 |
| 20260507062808 | 13 | 137 | 1.6 | 6.4 | 17.58 | 9.40 | 8.97 | 93 | 1016.3 |
| 20260507061808 | 14 | 183 | 1.6 | 6.4 | 17.58 | 9.12 | 8.71 | 91 | 1016.4 |
| 20260507060808 | 14 | 56 | 1.6 | 4.8 | 18.11 | 8.86 | 8.43 | 92 | 1016.2 |
| 20260507055608 | 13 | 176 | 1.6 | 4.8 | 16.51 | 8.43 | 8.03 | 94 | 1016.0 |
| 20260507054608 | 13 | 134 | 1.6 | 6.4 | 15.98 | 8.10 | 7.70 | 95 | 1016.0 |
| 20260507053608 | 13 | 238 | 3.2 | 6.4 | 15.98 | 7.85 | 7.44 | 96 | 1015.9 |
| 20260507052608 | 13 | 204 | 3.2 | 6.4 | 15.93 | 7.57 | 7.16 | 97 | 1015.7 |
| 20260507051608 | 12 | 233 | 1.6 | 4.8 | 15.85 | 7.32 | 6.91 | 98 | 1015.5 |
| 20260507050608 | 12 | 181 | 1.6 | 6.4 | 15.75 | 7.04 | 6.63 | 97 | 1015.4 |
| 20260507045608 | 12 | 223 | 1.6 | 4.8 | 15.44 | 6.78 | 6.38 | 97 | 1015.5 |
| 20260507044608 | 12 | 168 | 1.6 | 6.4 | 14.96 | 6.50 | 6.10 | 96 | 1015.7 |
| 20260507043608 | 12 | 117 | 1.6 | 6.4 | 14.45 | 6.25 | 5.84 | 95 | 1015.7 |
| 20260507042608 | 13 | 129 | 1.6 | 4.8 | 14.00 | 5.99 | 5.56 | 93 | 1016.0 |
| 20260507041608 | 13 | 332 | 1.6 | 6.4 | 14.83 | 5.71 | 5.31 | 92 | 1016.0 |
| 20260507040608 | 13 | 359 | 1.6 | 4.8 | 14.02 | 5.46 | 5.05 | 93 | 1015.9 |
| 20260507035611 | 12 | 9 | 1.6 | 4.8 | 13.79 | 5.23 | 4.83 | 94 | 1015.8 |
| 20260507034608 | 12 | 220 | 1.6 | 4.8 | 13.74 | 5.00 | 4.60 | 94 | 1015.7 |
| 20260507033608 | 12 | 215 | 1.6 | 4.8 | 13.74 | 4.80 | 4.39 | 94 | 1015.4 |
| 20260507032608 | 12 | 249 | 1.6 | 3.2 | 13.74 | 4.57 | 4.17 | 95 | 1015.2 |
| 20260507031308 | 12 | 263 | 1.6 | 1.6 | 12.80 | 4.19 | 3.78 | 94 | 1015.4 |
| 20260507030208 | 13 | 208 | 1.6 | 1.6 | 12.67 | 3.99 | 3.56 | 90 | 1015.8 |
| 20260507025208 | 13 | 266 | 1.6 | 3.2 | 12.52 | 3.76 | 3.35 | 90 | 1015.6 |
| 20260507024208 | 13 | 266 | 1.6 | 1.6 | 12.37 | 3.56 | 3.15 | 91 | 1015.7 |
| 20260507023208 | 13 | 257 | 1.6 | 3.2 | 12.19 | 3.33 | 2.92 | 92 | 1015.5 |
| 20260507022208 | 13 | 263 | 1.6 | 3.2 | 12.04 | 3.12 | 2.72 | 92 | 1015.4 |
| 20260507021208 | 13 | 224 | 1.6 | 3.2 | 11.96 | 2.92 | 25.12 | 92 | 1015.5 |